Simultaneous Nadir Overpasses (SNOs) Predictions

Prediction of SNOs between TERRA and METOP-C Satellite Orbit:

Table of predicted SNOs for the next 14.0 days since TLE Epoch: 11/28/2020
Index Date (TERRA) Time (TERRA) Lat,Lon (TERRA) SZA (TERRA ) Date (METOP-C) Time (METOP-C) Lat,Lon (METOP-C) SZA (METOP-C ) Distance(km) Time Diff (sec)
1 11/30/2020 10:29:12 81.28, 69.39 105.92 11/30/2020 10:29:05 81.28, 69.42 105.92 0.66 7
2 11/30/2020 11:18:39 -81.28,-123.05 74.09 11/30/2020 11:19:45 -81.28,-123.14 74.07 1.54 66
3 12/03/2020 05:13:59 -81.27, -31.94 73.73 12/03/2020 05:12:48 -81.27, -32.09 73.78 2.74 71
4 12/03/2020 06:03:25 81.28, 135.78 106.29 12/03/2020 06:03:28 81.28, 135.77 106.29 0.20 3
5 12/06/2020 00:48:13 -81.27, 34.42 73.42 12/06/2020 00:47:11 -81.27, 34.61 73.42 3.25 62
6 12/06/2020 01:37:39 81.27,-157.89 106.60 12/06/2020 01:37:52 81.28,-157.90 106.61 0.39 13
7 12/08/2020 20:22:27 -81.26, 100.71 73.17 12/08/2020 20:21:35 -81.27, 100.89 73.17 3.25 52
8 12/08/2020 21:11:52 81.28, -91.25 106.90 12/08/2020 21:12:15 81.28, -91.22 106.91 0.60 23
9 12/11/2020 15:56:40 -81.27, 167.32 72.94 12/11/2020 15:55:59 -81.27, 167.15 72.98 2.88 41



Historial Predications of SNOs between TERRA and METOP-C
